This is the latest recevied weather packets stored in our database for station/object W0AKY-13. If no packets are shown the sender has not sent any weather packets the latest 10 day(s).
| Time | Temp. | Humidity | Pressure | Rain* | Wind** | Luminosity | Snow |
|---|---|---|---|---|---|---|---|
| 1777393832 | 10.56° C | 68% | 1019.1 hPa | 0 mm | - | 94 W/m² | - |
| 1777393531 | 10.56° C | 68% | 1019.8 hPa | 0 mm | - | 55 W/m² | - |
| 1777393227 | 10.56° C | 67% | 1019.9 hPa | 0 mm | - | 42 W/m² | - |
| 1777392924 | 10.56° C | 66% | 1019.7 hPa | 0 mm | - | 48 W/m² | - |
| 1777392618 | 11.11° C | 67% | 1019.7 hPa | 0 mm | - | 67 W/m² | - |
| 1777392315 | 11.67° C | 63% | 1019.4 hPa | 0 mm | - | 108 W/m² | - |
| 1777392009 | 11.11° C | 65% | 1019.2 hPa | 0 mm | - | 435 W/m² | - |
| 1777391704 | 11.11° C | 69% | 1019 hPa | 0 mm | - | 124 W/m² | - |
| 1777391401 | 10.56° C | 70% | 1019.1 hPa | 0 mm | - | 255 W/m² | - |
| 1777391098 | 10.56° C | 71% | 1019.5 hPa | 0 mm | - | 107 W/m² | - |
| 1777390794 | 10.56° C | 72% | 1019.4 hPa | 0 mm | - | 104 W/m² | - |
| 1777390490 | 10.56° C | 72% | 1019.6 hPa | 0 mm | - | 109 W/m² | - |
| 1777390187 | 10.56° C | 72% | 1019.8 hPa | 0 mm | - | 127 W/m² | - |
| 1777389883 | 10.56° C | 72% | 1020 hPa | 0 mm | - | 94 W/m² | - |
| 1777389580 | 10.56° C | 72% | 1019.9 hPa | 0 mm | - | 103 W/m² | - |
| 1777389277 | 10.56° C | 73% | 1019.9 hPa | 0 mm | - | 309 W/m² | - |
| 1777388975 | 10.56° C | 73% | 1020.2 hPa | 0 mm | - | 164 W/m² | - |
| 1777388672 | 10.56° C | 69% | 1020 hPa | 0 mm | - | 271 W/m² | - |
| 1777388368 | 10.56° C | 72% | 1020.1 hPa | 0 mm | - | 246 W/m² | - |
| 1777388068 | 10.56° C | 72% | 1020 hPa | 0 mm | - | 365 W/m² | - |
| 1777387765 | 10.56° C | 72% | 1019.8 hPa | 0 mm | - | 231 W/m² | - |
| 1777387461 | 10° C | 74% | 1019.9 hPa | 0 mm | - | 225 W/m² | - |
| 1777387156 | 10° C | 72% | 1019.8 hPa | 0 mm | - | 283 W/m² | - |
| 1777386852 | 10° C | 72% | 1019.5 hPa | 0 mm | - | 191 W/m² | - |
| 1777386549 | 9.44° C | 74% | 1020.1 hPa | 0 mm | - | 243 W/m² | - |
* Rain latest hour (hover to see other rain measurements)
** Current wind speed in m/s (hover to see current wind gust speed)